Flag for U.S.A. Weather past 2 weeks in Metlakatla, Alaska, U.S.A.

Now
43 °F

Mostly cloudy.


Feels Like: 40 °F
Forecast: 42 / 46 °F
Wind: 5 mph from South

Location: Metlakatla - Metlakatla Seaplane Base


UV Index: 0 (Low)

Visibility: 10 mi


Pressure: 29.86 "Hg

Humidity: 81%

Dew point: 37 °F

Location of MetlakatlaLocation

Historic Weather in Metlakatla

°F

Metlakatla temperature yesterday

Maximum temperature yesterday: 46 °F (at 7:56 AM)
Minimum temperature yesterday: 43 °F (at 8:16 AM)
Average temperature yesterday: 44 °F

Past Weeks' High & Low Weather Summary

 TemperatureHumidityPressure
High52 °F (Apr 14, 12:36 PM)93% (Apr 3, 2:56 AM)30.34 "Hg (Apr 3, 2:56 AM)
Low34 °F (Apr 3, 11:56 PM)44% (Apr 16, 11:36 AM)29.35 "Hg (Apr 17, 4:36 AM)
Average43 °F81%29.88 "Hg
* Reported Apr 3 2:16 AM — Apr 18 2:36 AM, Metlakatla, Weather by CustomWeather, © 2014

Note: Actual official high and low records may vary slightly from our data, if they occured in-between our weather recording intervals... More about our weather records

Advertising

Historic Weather Conditions — Data for Previous 24 hours

 ConditionsComfort  
Time TempWeatherWind HumidityBarometerVisibility
2:36 AM
Apr 18
43 °FMostly cloudy.5 mph81%29.85 "Hg10 mi
2:16 AM43 °FMostly cloudy.5 mph81%29.85 "Hg10 mi
1:56 AM43 °FOvercast.5 mph81%29.84 "Hg10 mi
1:36 AM43 °FOvercast.5 mph81%29.84 "Hg10 mi
1:16 AM43 °FOvercast.6 mph81%29.83 "Hg10 mi
12:56 AM43 °FOvercast.6 mph81%29.83 "Hg10 mi
12:36 AM43 °FMostly cloudy.5 mph81%29.82 "Hg10 mi
12:16 AM43 °FMostly cloudy.5 mph81%29.81 "Hg10 mi
11:56 PM
Apr 17
43 °FOvercast.6 mph81%29.81 "Hg10 mi
11:36 PM43 °FOvercast.6 mph81%29.80 "Hg10 mi
11:16 PM43 °FOvercast.6 mph81%29.79 "Hg10 mi
10:56 PM43 °FOvercast.7 mph81%29.78 "Hg10 mi
10:36 PM43 °FMostly cloudy.5 mph81%29.78 "Hg10 mi
10:16 PM43 °FOvercast.6 mph81%29.77 "Hg10 mi
9:56 PM43 °FMostly cloudy.5 mph81%29.76 "Hg10 mi
9:36 PM43 °FOvercast.6 mph81%29.76 "Hg10 mi
9:16 PM43 °FOvercast.7 mph81%29.75 "Hg10 mi
8:56 PM43 °FOvercast.5 mph81%29.74 "Hg10 mi
8:36 PM43 °FOvercast.6 mph81%29.73 "Hg10 mi
8:16 PM43 °FMostly cloudy.5 mph81%29.73 "Hg10 mi
7:56 PM43 °FBroken clouds.5 mph81%29.72 "Hg10 mi
7:36 PM43 °FMostly cloudy.7 mph81%29.71 "Hg10 mi
7:16 PM43 °FMore clouds than sun.8 mph87%29.71 "Hg10 mi
6:56 PM43 °FBroken clouds.5 mph81%29.70 "Hg10 mi
6:36 PM43 °FBroken clouds.7 mph81%29.69 "Hg10 mi
6:16 PM43 °FPartly sunny.8 mph81%29.69 "Hg10 mi
5:56 PM45 °FMostly cloudy.8 mph81%29.68 "Hg10 mi
5:36 PM45 °FBroken clouds.10 mph76%29.67 "Hg10 mi
5:16 PM45 °FBroken clouds.6 mph81%29.67 "Hg10 mi
4:56 PM45 °FMostly cloudy.10 mph81%29.66 "Hg10 mi
4:36 PM45 °FMostly cloudy.9 mph81%29.66 "Hg10 mi
4:16 PM45 °FMostly cloudy.8 mph81%29.65 "Hg10 mi
3:56 PM45 °FMostly cloudy.9 mph87%29.64 "Hg10 mi
3:36 PM45 °FCloudy.7 mph87%29.64 "Hg9 mi
3:16 PM45 °FBroken clouds.9 mph87%29.63 "Hg10 mi
2:56 PM45 °FBroken clouds.9 mph93%29.62 "Hg10 mi
2:36 PM45 °FBroken clouds.10 mph87%29.61 "Hg10 mi
2:16 PM45 °FCloudy.9 mph81%29.60 "Hg10 mi
1:56 PM45 °FCloudy.7 mph87%29.59 "Hg10 mi
1:36 PM45 °FCloudy.7 mph87%29.58 "Hg6 mi
1:16 PM45 °FBroken clouds.10 mph87%29.57 "Hg7 mi
12:56 PM46 °FMostly cloudy.15 mph87%29.56 "Hg10 mi
12:36 PM46 °FCloudy.13 mph87%29.55 "Hg10 mi
12:16 PM45 °FBroken clouds.12 mph87%29.54 "Hg9 mi
11:56 AM46 °FCloudy.12 mph87%29.53 "Hg9 mi
11:36 AM46 °FPartly sunny.13 mph87%29.52 "Hg10 mi
11:16 AM45 °FCloudy.15 mph81%29.51 "Hg10 mi
10:56 AM45 °FMore clouds than sun.8 mph81%29.50 "Hg10 mi
10:36 AM45 °FMore clouds than sun.9 mph87%29.49 "Hg10 mi
10:16 AM45 °FCloudy.12 mph81%29.48 "Hg10 mi
9:56 AM43 °FCloudy.8 mph87%29.47 "Hg8 mi
8:56 AM43 °FMostly cloudy.8 mph87%29.44 "Hg8 mi
8:36 AM43 °FMore clouds than sun.8 mph87%29.42 "Hg10 mi
8:16 AM43 °FMore clouds than sun.8 mph87%29.40 "Hg3 mi
7:56 AM46 °FMostly cloudy.6 mph76%29.37 "Hg10 mi
7:36 AM45 °FCloudy.7 mph81%29.36 "Hg10 mi
7:16 AM45 °FMostly cloudy.9 mph81%29.36 "Hg9 mi
6:56 AM45 °FMostly cloudy.6 mph76%29.36 "Hg10 mi
6:36 AM45 °FMostly cloudy.8 mph76%29.35 "Hg10 mi
6:16 AM45 °FOvercast.5 mph81%29.35 "Hg9 mi
5:56 AM45 °FMostly cloudy.6 mph76%29.35 "Hg10 mi
5:36 AM45 °FOvercast.6 mph76%29.35 "Hg10 mi
5:16 AM45 °FMostly cloudy.10 mph76%29.35 "Hg7 mi
4:56 AM45 °FMostly cloudy.16 mph76%29.35 "Hg8 mi
4:36 AM45 °FMostly cloudy.16 mph76%29.35 "Hg9 mi
4:16 AM45 °FMostly cloudy.17 mph76%29.36 "Hg10 mi
3:56 AM45 °FOvercast.16 mph76%29.36 "Hg9 mi
3:36 AM45 °FOvercast.18 mph76%29.37 "Hg9 mi
3:16 AM45 °FMostly cloudy.14 mph76%29.38 "Hg9 mi
Weather by CustomWeather, © 2014

See weather overview